Time,TemperatureF,DewpointF,PressureIn,WindDirection,WindDirectionDegrees,WindSpeedMPH,WindSpeedGustMPH,Humidity,HourlyPrecipIn,Conditions,Clouds,dailyrainin,SoftwareType,DateUTC
2013-04-06 00:14:00,60.3,45.0,29.87,South,176,8.0,10.0,57,0.00,,,0.00,Wunderground v.1.15,2013-04-06 05:14:00,
2013-04-06 00:28:00,59.7,44.9,29.86,South,172,7.0,7.0,58,0.00,,,0.00,Wunderground v.1.15,2013-04-06 05:28:00,
2013-04-06 00:44:00,59.0,44.7,29.86,South,187,7.0,7.0,59,0.00,,,0.00,Wunderground v.1.15,2013-04-06 05:44:00,
2013-04-06 00:58:00,59.0,45.1,29.87,SSW,195,5.0,5.0,60,0.00,,,0.00,Wunderground v.1.15,2013-04-06 05:58:00,
2013-04-06 01:28:00,58.5,45.5,29.86,South,174,6.0,6.0,62,0.00,,,0.00,Wunderground v.1.15,2013-04-06 06:28:00,
2013-04-06 01:44:00,58.2,45.7,29.85,South,178,6.0,8.0,63,0.00,,,0.00,Wunderground v.1.15,2013-04-06 06:44:00,
2013-04-06 01:58:00,58.1,45.6,29.85,South,185,6.0,9.0,63,0.00,,,0.00,Wunderground v.1.15,2013-04-06 06:58:00,
2013-04-06 02:14:00,57.8,45.7,29.85,South,191,6.0,10.0,64,0.00,,,0.00,Wunderground v.1.15,2013-04-06 07:14:00,
2013-04-06 02:28:00,57.7,45.6,29.84,South,189,7.0,12.0,64,0.00,,,0.00,Wunderground v.1.15,2013-04-06 07:28:00,
2013-04-06 02:44:00,57.8,45.7,29.83,SSW,195,8.0,12.0,64,0.00,,,0.00,Wunderground v.1.15,2013-04-06 07:44:00,
2013-04-06 02:58:00,57.5,45.4,29.82,South,173,6.0,13.0,64,0.00,,,0.00,Wunderground v.1.15,2013-04-06 07:58:00,
2013-04-06 03:14:00,57.6,45.9,29.82,South,184,8.0,8.0,65,0.00,,,0.00,Wunderground v.1.15,2013-04-06 08:14:00,
2013-04-06 03:28:00,57.5,45.8,29.81,SSE,159,7.0,13.0,65,0.00,,,0.00,Wunderground v.1.15,2013-04-06 08:28:00,
2013-04-06 03:44:00,57.6,45.9,29.81,SSW,198,7.0,7.0,65,0.00,,,0.00,Wunderground v.1.15,2013-04-06 08:44:00,
2013-04-06 03:58:00,57.6,45.9,29.81,South,190,5.0,9.0,65,0.00,,,0.00,Wunderground v.1.15,2013-04-06 08:58:00,
2013-04-06 04:14:00,57.6,46.3,29.80,South,186,7.0,7.0,66,0.00,,,0.00,Wunderground v.1.15,2013-04-06 09:14:00,
2013-04-06 04:28:00,57.6,46.3,29.80,South,190,7.0,13.0,66,0.00,,,0.00,Wunderground v.1.15,2013-04-06 09:28:00,
2013-04-06 04:44:00,57.7,46.4,29.81,SSW,197,5.0,5.0,66,0.00,,,0.00,Wunderground v.1.15,2013-04-06 09:44:00,
2013-04-06 04:58:00,57.3,46.4,29.80,SSE,167,5.0,5.0,67,0.00,,,0.00,Wunderground v.1.15,2013-04-06 09:58:00,
2013-04-06 05:14:00,57.1,46.6,29.81,South,184,4.0,4.0,68,0.00,,,0.00,Wunderground v.1.15,2013-04-06 10:14:00,
2013-04-06 05:28:00,56.9,46.4,29.80,South,186,4.0,4.0,68,0.00,,,0.00,Wunderground v.1.15,2013-04-06 10:28:00,
2013-04-06 05:44:00,56.8,46.3,29.81,SSE,163,3.0,6.0,68,0.00,,,0.00,Wunderground v.1.15,2013-04-06 10:44:00,
2013-04-06 05:58:00,56.8,46.7,29.81,South,179,3.0,4.0,69,0.00,,,0.00,Wunderground v.1.15,2013-04-06 10:58:00,
2013-04-06 06:14:00,56.9,46.8,29.82,South,174,3.0,5.0,69,0.00,,,0.00,Wunderground v.1.15,2013-04-06 11:14:00,
2013-04-06 06:28:00,56.8,46.7,29.81,South,183,3.0,3.0,69,0.00,,,0.00,Wunderground v.1.15,2013-04-06 11:28:00,
2013-04-06 06:44:00,56.8,47.1,29.82,South,180,2.0,2.0,70,0.00,,,0.00,Wunderground v.1.15,2013-04-06 11:44:00,
2013-04-06 06:58:00,57.2,47.1,29.81,South,184,4.0,4.0,69,0.00,,,0.00,Wunderground v.1.15,2013-04-06 11:58:00,
2013-04-06 07:14:00,58.0,47.5,29.82,South,187,5.0,5.0,68,0.00,,,0.00,Wunderground v.1.15,2013-04-06 12:14:00,
2013-04-06 07:28:00,58.2,47.3,29.81,South,190,4.0,4.0,67,0.00,,,0.00,Wunderground v.1.15,2013-04-06 12:28:00,
2013-04-06 07:44:00,58.6,47.3,29.81,South,174,4.0,6.0,66,0.00,,,0.00,Wunderground v.1.15,2013-04-06 12:44:00,
2013-04-06 07:58:00,59.0,47.7,29.80,SSW,194,7.0,7.0,66,0.00,,,0.00,Wunderground v.1.15,2013-04-06 12:58:00,
2013-04-06 08:28:00,59.0,47.7,29.82,South,180,6.0,8.0,66,0.00,,,0.00,Wunderground v.1.15,2013-04-06 13:28:00,
2013-04-06 08:44:00,59.4,48.0,29.83,SSW,207,5.0,10.0,66,0.00,,,0.00,Wunderground v.1.15,2013-04-06 13:44:00,
2013-04-06 08:58:00,59.7,47.9,29.82,SSW,203,7.0,7.0,65,0.00,,,0.00,Wunderground v.1.15,2013-04-06 13:58:00,
2013-04-06 09:16:00,61.1,48.8,29.82,SW,220,6.0,11.0,64,0.00,,,0.00,Wunderground v.1.15,2013-04-06 14:16:00,
2013-04-06 09:28:00,60.6,48.4,29.80,SSW,194,7.0,9.0,64,0.00,,,0.00,Wunderground v.1.15,2013-04-06 14:28:00,
2013-04-06 09:58:00,62.5,48.9,29.79,South,173,9.0,9.0,61,0.00,,,0.00,Wunderground v.1.15,2013-04-06 14:58:00,
2013-04-06 10:14:00,63.3,49.2,29.78,South,187,9.0,15.0,60,0.00,,,0.00,Wunderground v.1.15,2013-04-06 15:14:00,
2013-04-06 10:28:00,64.8,49.2,29.78,South,178,8.0,15.0,57,0.00,,,0.00,Wunderground v.1.15,2013-04-06 15:28:00,
2013-04-06 10:44:00,65.4,49.3,29.78,SSW,195,11.0,12.0,56,0.00,,,0.00,Wunderground v.1.15,2013-04-06 15:44:00,
2013-04-06 10:58:00,67.0,48.8,29.77,SSW,192,9.0,10.0,52,0.00,,,0.00,Wunderground v.1.15,2013-04-06 15:58:00,
2013-04-06 11:14:00,67.3,49.1,29.77,SSW,194,10.0,10.0,52,0.00,,,0.00,Wunderground v.1.15,2013-04-06 16:14:00,
2013-04-06 11:28:00,67.8,49.5,29.77,South,177,11.0,11.0,52,0.00,,,0.00,Wunderground v.1.15,2013-04-06 16:28:00,
2013-04-06 11:44:00,69.5,49.5,29.77,South,178,7.0,7.0,49,0.00,,,0.00,Wunderground v.1.15,2013-04-06 16:44:00,
2013-04-06 12:00:00,70.1,49.5,29.77,SSW,198,8.0,10.0,48,0.00,,,0.00,Wunderground v.1.15,2013-04-06 17:00:00,
2013-04-06 12:14:00,70.8,49.6,29.77,South,179,8.0,15.0,47,0.00,,,0.00,Wunderground v.1.15,2013-04-06 17:14:00,
2013-04-06 12:28:00,71.3,49.4,29.76,SW,217,6.0,6.0,46,0.00,,,0.00,Wunderground v.1.15,2013-04-06 17:28:00,
2013-04-06 12:44:00,70.9,49.1,29.76,SW,216,9.0,9.0,46,0.00,,,0.00,Wunderground v.1.15,2013-04-06 17:44:00,
2013-04-06 12:58:00,70.6,50.0,29.76,SSE,159,9.0,10.0,48,0.00,,,0.00,Wunderground v.1.15,2013-04-06 17:58:00,
2013-04-06 13:14:00,71.3,48.9,29.75,WSW,240,6.0,6.0,45,0.00,,,0.00,Wunderground v.1.15,2013-04-06 18:14:00,
2013-04-06 13:28:00,73.0,49.8,29.75,SSW,200,5.0,8.0,44,0.00,,,0.00,Wunderground v.1.15,2013-04-06 18:28:00,
2013-04-06 13:44:00,74.6,50.0,29.75,SSW,208,5.0,5.0,42,0.00,,,0.00,Wunderground v.1.15,2013-04-06 18:44:00,
2013-04-06 14:00:00,75.3,50.0,29.75,SSW,213,5.0,5.0,41,0.00,,,0.00,Wunderground v.1.15,2013-04-06 19:00:00,
2013-04-06 14:14:00,75.1,50.4,29.74,SSW,209,6.0,6.0,42,0.00,,,0.00,Wunderground v.1.15,2013-04-06 19:14:00,
2013-04-06 14:28:00,76.0,49.9,29.73,SW,215,4.0,4.0,40,0.00,,,0.00,Wunderground v.1.15,2013-04-06 19:28:00,
2013-04-06 14:44:00,75.3,50.0,29.73,WSW,247,7.0,9.0,41,0.00,,,0.00,Wunderground v.1.15,2013-04-06 19:44:00,
2013-04-06 14:58:00,75.8,49.8,29.73,SW,233,5.0,9.0,40,0.00,,,0.00,Wunderground v.1.15,2013-04-06 19:58:00,
2013-04-06 15:14:00,76.1,50.0,29.72,West,269,5.0,5.0,40,0.00,,,0.00,Wunderground v.1.15,2013-04-06 20:14:00,
2013-04-06 15:28:00,76.6,50.5,29.71,SSW,206,5.0,5.0,40,0.00,,,0.00,Wunderground v.1.15,2013-04-06 20:28:00,
2013-04-06 15:44:00,76.5,50.4,29.71,SW,223,6.0,12.0,40,0.00,,,0.00,Wunderground v.1.15,2013-04-06 20:44:00,
2013-04-06 15:58:00,77.3,51.1,29.70,SSW,207,4.0,4.0,40,0.00,,,0.00,Wunderground v.1.15,2013-04-06 20:58:00,
2013-04-06 16:14:00,76.0,50.6,29.70,SSW,207,6.0,6.0,41,0.00,,,0.00,Wunderground v.1.15,2013-04-06 21:14:00,
2013-04-06 16:28:00,77.3,51.1,29.70,SSW,210,4.0,4.0,40,0.00,,,0.00,Wunderground v.1.15,2013-04-06 21:28:00,
2013-04-06 16:46:00,78.2,51.2,29.70,West,261,4.0,4.0,39,0.00,,,0.00,Wunderground v.1.15,2013-04-06 21:46:00,
2013-04-06 16:58:00,77.4,50.5,29.70,South,186,5.0,5.0,39,0.00,,,0.00,Wunderground v.1.15,2013-04-06 21:58:00,
2013-04-06 17:14:00,77.5,51.3,29.71,SW,219,4.0,6.0,40,0.00,,,0.00,Wunderground v.1.15,2013-04-06 22:14:00,
2013-04-06 17:28:00,76.9,50.7,29.71,SW,234,5.0,5.0,40,0.00,,,0.00,Wunderground v.1.15,2013-04-06 22:28:00,
2013-04-06 17:44:00,77.1,51.6,29.71,WSW,257,3.0,3.0,41,0.00,,,0.00,Wunderground v.1.15,2013-04-06 22:44:00,
2013-04-06 17:58:00,76.4,51.6,29.72,SSW,200,4.0,4.0,42,0.00,,,0.00,Wunderground v.1.15,2013-04-06 22:58:00,
2013-04-06 18:14:00,75.5,51.4,29.72,SSW,207,4.0,4.0,43,0.00,,,0.00,Wunderground v.1.15,2013-04-06 23:14:00,
2013-04-06 18:28:00,75.3,51.3,29.72,South,186,4.0,4.0,43,0.00,,,0.00,Wunderground v.1.15,2013-04-06 23:28:00,
2013-04-06 18:44:00,75.1,51.1,29.72,WSW,242,3.0,3.0,43,0.00,,,0.00,Wunderground v.1.15,2013-04-06 23:44:00,
2013-04-06 18:58:00,74.6,50.6,29.72,West,269,2.0,6.0,43,0.00,,,0.00,Wunderground v.1.15,2013-04-06 23:58:00,
2013-04-06 19:14:00,74.1,51.4,29.73,SW,235,2.0,2.0,45,0.00,,,0.00,Wunderground v.1.15,2013-04-07 00:14:00,
2013-04-06 19:28:00,73.6,50.9,29.73,WSW,257,2.0,2.0,45,0.00,,,0.00,Wunderground v.1.15,2013-04-07 00:28:00,
2013-04-06 19:44:00,73.0,50.4,29.74,WSW,246,1.0,1.0,45,0.00,,,0.00,Wunderground v.1.15,2013-04-07 00:44:00,
2013-04-06 19:58:00,72.4,50.4,29.74,WSW,245,0.0,1.0,46,0.00,,,0.00,Wunderground v.1.15,2013-04-07 00:58:00,
2013-04-06 20:14:00,71.8,51.0,29.74,WSW,245,0.0,0.0,48,0.00,,,0.00,Wunderground v.1.15,2013-04-07 01:14:00,
2013-04-06 20:28:00,71.3,51.1,29.74,WSW,245,0.0,0.0,49,0.00,,,0.00,Wunderground v.1.15,2013-04-07 01:28:00,
2013-04-06 20:44:00,71.0,50.9,29.74,WSW,245,1.0,1.0,49,0.00,,,0.00,Wunderground v.1.15,2013-04-07 01:44:00,
2013-04-06 20:58:00,70.6,51.1,29.75,WSW,243,1.0,2.0,50,0.00,,,0.00,Wunderground v.1.15,2013-04-07 01:58:00,
2013-04-06 21:14:00,70.3,51.3,29.76,SW,221,1.0,2.0,51,0.00,,,0.00,Wunderground v.1.15,2013-04-07 02:14:00,
2013-04-06 21:28:00,69.6,51.7,29.76,SSW,211,2.0,3.0,53,0.00,,,0.00,Wunderground v.1.15,2013-04-07 02:28:00,
2013-04-06 21:44:00,68.9,51.6,29.77,South,186,3.0,5.0,54,0.00,,,0.00,Wunderground v.1.15,2013-04-07 02:44:00,
2013-04-06 21:58:00,68.7,51.4,29.77,South,183,2.0,3.0,54,0.00,,,0.00,Wunderground v.1.15,2013-04-07 02:58:00,
2013-04-06 22:14:00,68.6,51.8,29.78,South,181,4.0,4.0,55,0.00,,,0.00,Wunderground v.1.15,2013-04-07 03:14:00,
2013-04-06 22:28:00,68.0,51.7,29.79,SSW,196,3.0,3.0,56,0.00,,,0.00,Wunderground v.1.15,2013-04-07 03:28:00,
2013-04-06 22:44:00,67.2,51.9,29.80,SSW,193,1.0,1.0,58,0.00,,,0.00,Wunderground v.1.15,2013-04-07 03:44:00,
2013-04-06 22:58:00,66.7,51.9,29.80,South,189,2.0,2.0,59,0.00,,,0.00,Wunderground v.1.15,2013-04-07 03:58:00,
2013-04-06 23:00:00,66.6,51.8,29.80,South,188,2.0,4.0,59,0.00,,,0.00,Wunderground v.1.15,2013-04-07 04:00:00,
2013-04-06 23:14:00,66.1,52.3,29.80,South,188,2.0,2.0,61,0.00,,,0.00,Wunderground v.1.15,2013-04-07 04:14:00,
2013-04-06 23:28:00,65.7,52.3,29.80,South,189,1.0,2.0,62,0.00,,,0.00,Wunderground v.1.15,2013-04-07 04:28:00,
2013-04-06 23:32:00,65.7,52.3,29.80,South,189,1.0,4.0,62,0.00,,,0.00,Wunderground v.1.15,2013-04-07 04:32:00,
2013-04-06 23:58:00,65.1,52.6,29.80,South,190,2.0,4.0,64,0.00,,,0.00,Wunderground v.1.15,2013-04-07 04:58:00,